Location: Unspecified
(0.0000°N, 0.0000°E)
Time: 18:33:00
(UTC+00:00)

Vanguard 2 Rocket - Visible Passes

Search period start: 18 April 2019 00:00
Search period end: 28 April 2019 00:00
Orbit: 556 x 3325 km, 32.9° (Epoch: 17 April)

Date Brightness Start Highest point End Pass type
(mag) Time Alt. Az. Time Alt. Az. Time Alt. Az.
18 Apr 9.9 02:13:09 38° SSE 02:13:09 38° SSE 02:21:00 10° SE visible
18 Apr 9.9 04:18:59 25° SW 04:22:32 27° SSW 04:33:45 10° SSE visible
18 Apr 10.4 20:15:45 10° N 20:22:59 16° NNE 20:27:22 14° NE visible
18 Apr 10.2 22:27:07 10° NNW 22:33:07 28° NNW 22:33:07 28° NNW visible
19 Apr 10.6 01:17:14 20° SE 01:17:14 20° SE 01:20:25 10° SE visible
19 Apr 9.8 03:23:04 37° SSW 03:23:04 37° SSW 03:34:38 10° SSE visible
19 Apr 10.2 05:34:11 10° SW 05:40:00 13° SSW 05:44:58 10° S visible
19 Apr 10.0 21:27:43 10° NNW 21:36:31 30° NNE 21:36:31 30° NNE visible
19 Apr 10.7 23:41:06 10° NW 00:21:15 - ESE 23:42:17 14° NW visible
20 Apr 10.0 02:27:04 34° SSE 02:27:04 34° SSE 02:34:53 10° SE visible
20 Apr 10.1 04:32:53 18° SW 04:37:50 20° SSW 04:47:16 10° SSE visible
20 Apr 10.1 20:29:01 10° NNW 20:38:26 22° NNE 20:39:57 22° NE visible
20 Apr 10.2 22:40:55 10° NW 22:45:43 27° NNW 22:45:43 27° NNW visible
21 Apr 10.6 01:31:00 20° SE 01:31:00 20° SE 01:34:31 10° SE visible
21 Apr 10.0 03:36:49 28° SSW 03:36:49 28° SSW 03:48:17 10° SSE visible
21 Apr 10.2 19:31:36 10° N 19:36:47 13° NNE 19:43:01 10° NE visible
21 Apr 9.8 21:41:21 10° NNW 21:49:11 35° N 21:49:11 35° N visible
22 Apr10.900:34:52SE00:34:52SE23:54:58WNWvisible
22 Apr 10.1 02:40:41 29° S 02:40:41 29° S 02:48:38 10° SSE visible
22 Apr 10.3 04:46:29 11° SW 04:53:45 15° SSW 05:00:58 10° S visible
22 Apr 9.8 20:42:25 10° NNW 20:52:41 31° NNE 20:52:41 31° NNE visible
22 Apr 10.3 22:54:56 10° NW 22:58:28 23° NW 22:58:28 23° NW visible
23 Apr 10.6 01:44:30 20° SSE 01:44:30 20° SSE 01:48:23 10° SE visible
23 Apr 10.2 03:50:18 21° SSW 03:51:01 21° SSW 04:02:03 10° SSE visible
23 Apr 10.0 19:44:16 10° N 19:52:00 20° NE 19:56:14 17° NE visible
23 Apr 9.7 21:55:09 10° NW 22:02:01 38° NNW 22:02:01 38° NNW visible
24 Apr11.000:48:16SE00:48:16SE00:07:48WNWvisible
24 Apr 10.3 02:54:04 25° S 02:54:04 25° S 03:02:22 10° SSE visible
24 Apr 10.4 05:04:11 10° SW 05:10:12 12° SSW 05:15:25 10° S visible
24 Apr 10.1 18:48:39 10° NNE 18:50:53 11° NNE 18:53:20 10° NE visible
24 Apr 9.4 20:55:58 10° NNW 21:05:37 42° NNE 21:05:37 42° NNE visible
24 Apr 10.5 23:09:17 10° WNW 23:11:24 18° WNW 23:11:24 18° WNW visible
25 Apr 10.6 01:57:48 20° SSE 01:57:48 20° SSE 02:02:08 10° SSE visible
25 Apr 10.4 04:03:36 16° SSW 04:07:13 17° SSW 04:16:14 10° SSE visible
25 Apr 9.6 19:57:26 10° NNW 20:06:38 29° NE 20:09:15 27° NE visible
25 Apr 9.8 22:09:12 10° NW 22:15:02 36° NW 22:15:02 36° NW visible
26 Apr 10.4 03:07:18 21° S 03:07:18 21° S 03:16:21 10° SSE visible
26 Apr 10.4 05:21:12 10° SSW 05:26:53 12° S 05:31:45 10° SSE visible
26 Apr 9.8 18:59:50 10° N 19:05:55 17° NE 19:12:56 11° ENE visible
26 Apr 9.2 21:09:46 10° NW 21:18:43 53° N 21:18:43 53° N visible
26 Apr 10.7 23:24:05 10° WNW 23:24:31 11° WNW 23:24:31 11° WNW visible
27 Apr 10.6 02:10:57 19° SSE 02:10:57 19° SSE 02:15:58 10° SSE visible
27 Apr 10.5 04:16:45 12° SSW 04:23:52 15° S 04:31:28 10° SSE visible
27 Apr 9.2 20:10:56 10° NNW 20:20:52 42° NE 20:22:26 41° NE visible
27 Apr 9.9 22:23:36 10° WNW 22:28:14 30° WNW 22:28:14 30° WNW visible
